Regional Weather Roundup
Issued by NWS

Home | Current Version | Previous Version | Text Only | Print | Product List | Glossary Off
Versions: 1 2 3 4 5 6 7 8 9 10 11 12 13 14 15 16 17 18 19 20 21 22 23 24 25 26 27 28 29 30 31 32 33 34 35 36 37 38 39 40 41 42 43 44 45 46 47 48 49 50

509
ASUS44 KLIX 301910
RWRLA
LOUISIANA WEATHER ROUNDUP
NATIONAL WEATHER SERVICE NEW ORLEANS LA
100 PM CST FRI JAN 30 2015

NOTE: "FAIR" INDICATES FEW OR NO CLOUDS BELOW 12,000 FEET WITH NO
      SIGNIFICANT WEATHER AND/OR OBSTRUCTIONS TO VISIBILITY.
      SKY/WX - SKY CONDITION AND SIGNIFICANT WEATHER.
      TMP - AIR TEMPERATURE.    DP   - DEWPOINT TEMPERATURE.
      RH  - RELATIVE HUMIDITY.  PRES - PRESSURE.
      HX  - HEAT INDEX.         WCI  - WIND CHILL INDEX.

*  THESE STATIONS ARE NOT NWS OR FAA STATIONS AND ARE NOT UNDER
   NWS QUALITY CONTROL.

LAZ040-048-061>063-065-066-069-302000-
SOUTHEAST LOUISIANA

CITY           SKY/WX    TMP DP  RH WIND       PRES   REMARKS
N.O. AUDUBON     N/A     58  41  53 MISG        N/A
N.O. INTL ARPT CLOUDY    54  38  54 N12       30.35F
N.O. LAKEFRONT CLOUDY    58  37  45 N8        30.35F
N.O. DOWNTOWN* NOT AVBL
SLIDELL        CLOUDY    58  31  35 NE14      30.33F
BATON ROUGE    PTSUNNY   59  29  31 NE12      30.36F
BOOTHVILLE     PTSUNNY   53  42  66 NE9G18    30.34F
BELLE CHASSE   CLOUDY    57  35  43 N7        30.34F
BOGALUSA*        N/A     56  31  38 N12       30.37F
GALLIANO*      MOCLDY    58  39  49 MISG      30.34F
NEW ROADS*     FAIR      56  31  38 N8        30.37F
GONZALES*      FAIR      56  35  44 N9        30.35F
HAMMOND*       CLOUDY    57  30  35 N7        30.37F
HOUMA*         SUNNY     57  39  51 N14       30.35F
PORT FOURCHON* CLEAR     55  43  62 NE16      30.36F

$$

LAZ041-044-053-054-302000-
SOUTHWEST LOUISIANA

CITY           SKY/WX    TMP DP  RH WIND       PRES   REMARKS
LAKE CHARLES   SUNNY     58  34  40 NE10      30.36F
LAFAYETTE      MOSUNNY   56  35  45 VRB6      30.36F
PATTERSON      PTSUNNY   55  37  50 NE13      30.36F
SALT POINT       N/A     59  36  42 VRB7      30.33F
NEW IBERIA     MOSUNNY   57  35  43 NE9       30.37F
CHENAULT AIRPK NOT AVBL

$$

LAZ027-028-302000-
CENTRAL LOUISIANA

CITY           SKY/WX    TMP DP  RH WIND       PRES   REMARKS
FORT POLK      PTSUNNY   53  32  44 VRB6      30.39F
ALEXANDRIA INT PTSUNNY   55  31  39 NE12      30.39F
ALEXANDRIA     MOSUNNY   54  33  45 E9        30.41F

$$

LAZ001-002-302000-
NORTHWEST LOUISIANA

CITY           SKY/WX    TMP DP  RH WIND       PRES   REMARKS
SHREVEPORT     PTSUNNY   54  29  38 N6        30.42F
BARKSDALE AFB  SUNNY     54  30  39 E7        30.42F
DTN SHREVEPORT SUNNY     53  30  41 VRB5      30.43F

$$

LAZ014-016-302000-
NORTHEAST LOUISIANA

CITY           SKY/WX    TMP DP  RH WIND       PRES   REMARKS
MONROE         FAIR      51  32  48 NE10      30.45F
TALLULAH       MOSUNNY   53  31  42 N10       30.43F

$$




USA.gov is the U.S. government's official web portal to all federal, state and local government web resources and services.